Starlink 6275

operational
NORAD ID: 56772 Int'l Des: 2023-078 Owner: SPXS Country: US Constellation: starlink
LEOCIRCULAR

Starlink 6275について

説明を読み込み中...

リアルタイム位置

3D地球を読み込み中...

次回通過

高度履歴

Altitude vs Time

uPlot chart will show altitude changes over time

軌道要素

1 56772U 23078F 26034.48150102 .00000471 00000-0 47275-4 0 9994
2 56772 69.9997 90.6866 0003018 269.9015 90.1798 14.98336001147064
Epoch: Feb 3, 2026 • Age: 7 hours

現在のステータス

高度 584.7 km
速度 7.57 km/s
衛星直下点 65.22°N, 93.23°E
打ち上げ日 May 31, 2023
運用期間 2.6 years
タイプ internet

技術仕様

分類 Payload
質量 305.00 kg
乾燥質量 290.00 kg
総質量 305.00 kg
長さ 0.20 m
直径 2.80 m
スパン 9.00 m
形状 Box + pan
製造者 SPXS
バスタイプ Starlink
フェーズステータス In Orbit
所有者/国 SPXS/US

大規模コンステレーション

Loading constellations...